QPF
0.00 0.00 0.00 0.00 0.00 0.00 0.00 0.00 0.02 0.01 0.00 0.00 0.00 0.00 0.00 0.00 0.00 0.00 0.01 0.01 0.01 0.01 0.01 0.01 0.01 0.01 0.01 0.01 0.01 0.02 0.03 0.03 0.03 0.04 0.05 0.05 0.04 0.03 0.02 0.01 0.01 0.01 0.01 0.01
0.00 0.00 0.00 0.00 0.00 0.00 0.00 0.00 0.01 0.01 0.00 0.00 0.00 0.00 0.00 0.00 0.00 0.00 0.00 0.00 0.01 0.02 0.01 0.01 0.01 0.01 0.01 0.01 0.01 0.02 0.02 0.02 0.02 0.04 0.04 0.04 0.03 0.03 0.02 0.01 0.01 0.01 0.01 0.01
0.01 0.00 0.00 0.00 0.00 0.00 0.00 0.00 0.00 0.00 0.00 0.00 0.00 0.00 0.00 0.00 0.00 0.00 0.00 0.00 0.00 0.00 0.00 0.00 0.01 0.01 0.01 0.01 0.01 0.01 0.02 0.02 0.01 0.01 0.02 0.03 0.03 0.03 0.02 0.01 0.01 0.01 0.01 0.01
0.01 0.00 0.00 0.00 0.00 0.00 0.00 0.00 0.00 0.00 0.00 0.00 0.00 0.00 0.00 0.00 0.00 0.00 0.00 0.00 0.00 0.00 0.00 0.00 0.00 0.00 0.01 0.01 0.01 0.01 0.01 0.01 0.01 0.00 0.01 0.01 0.02 0.03 0.02 0.02 0.02 0.02 0.01 0.01
0.01 0.00 0.00 0.00 0.00 0.00 0.00 0.00 0.00 0.00 0.00 0.00 0.00 0.00 0.00 0.00 0.00 0.00 0.00 0.00 0.00 0.00 0.00 0.00 0.00 0.00 0.00 0.00 0.01 0.00 0.00 0.00 0.01 0.01 0.01 0.01 0.01 0.02 0.03 0.02 0.02 0.02 0.01 0.01
0.00 0.00 0.00 0.00 0.00 0.00 0.00 0.00 0.00 0.00 0.00 0.00 0.00 0.00 0.00 0.00 0.00 0.00 0.00 0.00 0.00 0.00 0.00 0.00 0.00 0.00 0.00 0.00 0.00 0.01 0.01 0.01 0.01 0.01 0.01 0.02 0.02 0.02 0.02 0.02 0.01 0.02 0.02 0.01
0.00 0.00 0.00 0.00 0.00 0.00 0.00 0.00 0.00 0.00 0.00 0.00 0.00 0.00 0.00 0.00 0.00 0.00 0.00 0.00 0.00 0.00 0.00 0.00 0.00 0.01 0.01 0.00 0.00 0.01 0.01 0.01 0.01 0.01 0.02 0.01 0.02 0.01 0.01 0.02 0.02 0.01 0.01 0.01
0.00 0.00 0.00 0.00 0.00 0.00 0.00 0.00 0.00 0.00 0.00 0.00 0.00 0.00 0.00 0.00 0.00 0.00 0.00 0.00 0.00 0.00 0.00 0.01 0.01 0.01 0.01 0.00 0.00 0.00 0.00 0.01 0.01 0.01 0.02 0.01 0.01 0.01 0.02 0.02 0.02 0.02 0.02 0.03
0.00 0.00 0.00 0.00 0.00 0.00 0.00 0.00 0.00 0.00 0.00 0.00 0.00 0.00 0.00 0.00 0.00 0.00 0.00 0.00 0.00 0.00 0.00 0.01 0.01 0.01 0.01 0.01 0.00 0.00 0.00 0.00 0.01 0.01 0.01 0.02 0.01 0.01 0.01 0.02 0.03 0.04 0.05 0.05
0.00 0.00 0.00 0.00 0.00 0.00 0.00 0.00 0.00 0.00 0.00 0.00 0.00 0.01 0.00 0.00 0.00 0.00 0.00 0.00 0.00 0.00 0.00 0.01 0.01 0.01 0.01 0.01 0.01 0.00 0.00 0.00 0.01 0.01 0.01 0.01 0.01 0.02 0.02 0.02 0.03 0.04 0.04 0.05
0.00 0.00 0.00 0.00 0.00 0.00 0.00 0.00 0.00 0.00 0.00 0.00 0.01 0.01 0.01 0.00 0.00 0.00 0.00 0.00 0.00 0.00 0.00 0.00 0.01 0.01 0.02 0.01 0.00 0.00 0.00 0.00 0.01 0.01 0.01 0.01 0.02 0.03 0.04 0.03 0.02 0.02 0.02 0.02
0.01 0.00 0.00 0.01 0.00 0.00 0.01 0.01 0.00 0.00 0.00 0.00 0.00 0.01 0.00 0.00 0.00 0.00 0.00 0.00 0.00 0.00 0.00 0.00 0.01 0.01 0.01 0.01 0.00 0.00 0.00 0.00 0.00 0.01 0.02 0.02 0.02 0.01 0.03 0.04 0.02 0.02 0.02 0.02
0.01 0.01 0.01 0.01 0.01 0.01 0.01 0.00 0.00 0.00 0.00 0.00 0.00 0.00 0.00 0.00 0.00 0.00 0.00 0.00 0.00 0.00 0.00 0.01 0.01 0.01 0.02 0.01 0.01 0.00 0.00 0.00 0.01 0.01 0.03 0.03 0.02 0.02 0.03 0.05 0.04 0.03 0.02 0.03
0.01 0.02 0.02 0.01 0.01 0.00 0.00 0.00 0.00 0.00 0.01 0.00 0.00 0.00 0.00 0.00 0.00 0.00 0.00 0.00 0.00 0.00 0.00 0.01 0.01 0.01 0.01 0.01 0.01 0.00 0.00 0.01 0.01 0.02 0.02 0.03 0.03 0.03 0.03 0.03 0.04 0.05 0.04 0.03
0.01 0.02 0.02 0.02 0.01 0.00 0.00 0.00 0.00 0.00 0.00 0.00 0.00 0.00 0.00 0.00 0.00 0.00 0.00 0.00 0.00 0.00 0.00 0.01 0.01 0.01 0.01 0.01 0.01 0.01 0.01 0.01 0.01 0.02 0.02 0.02 0.03 0.02 0.03 0.03 0.04 0.05 0.05 0.04
0.02 0.01 0.01 0.01 0.00 0.00 0.00 0.00 0.00 0.00 0.00 0.00 0.00 0.00 0.00 0.00 0.00 0.00 0.00 0.00 0.00 0.00 0.00 0.01 0.01 0.01 0.01 0.01 0.01 0.01 0.01 0.01 0.01 0.01 0.01 0.02 0.02 0.02 0.02 0.02 0.03 0.04 0.05 0.05
0.03 0.03 0.02 0.02 0.01 0.01 0.00 0.00 0.00 0.00 0.00 0.00 0.00 0.00 0.00 0.00 0.00 0.00 0.00 0.00 0.00 0.00 0.01 0.01 0.01 0.02 0.02 0.01 0.01 0.01 0.01 0.02 0.02 0.02 0.01 0.01 0.01 0.01 0.00 0.01 0.01 0.03 0.03 0.04
0.03 0.04 0.02 0.02 0.02 0.01 0.00 0.00 0.00 0.00 0.00 0.00 0.00 0.00 0.00 0.00 0.00 0.00 0.00 0.00 0.00 0.01 0.01 0.01 0.01 0.01 0.01 0.01 0.00 0.00 0.01 0.02 0.03 0.03 0.02 0.01 0.00 0.00 0.00 0.00 0.00 0.02 0.03 0.03
0.02 0.03 0.02 0.01 0.01 0.01 0.00 0.00 0.00 0.00 0.00 0.00 0.00 0.00 0.00 0.00 0.01 0.01 0.00 0.00 0.00 0.00 0.00 0.00 0.00 0.01 0.01 0.01 0.00 0.00 0.00 0.01 0.01 0.01 0.01 0.01 0.00 0.00 0.00 0.00 0.00 0.01 0.03 0.02
0.01 0.01 0.01 0.01 0.01 0.00 0.00 0.00 0.00 0.00 0.00 0.00 0.00 0.00 0.00 0.00 0.00 0.00 0.00 0.00 0.00 0.01 0.00 0.00 0.00 0.00 0.01 0.01 0.01 0.01 0.01 0.01 0.01 0.01 0.01 0.01 0.00 0.00 0.00 0.00 0.01 0.01 0.02 0.02
0.01 0.01 0.01 0.01 0.01 0.00 0.00 0.00 0.00 0.00 0.00 0.00 0.00 0.00 0.00 0.00 0.00 0.00 0.00 0.00 0.00 0.01 0.01 0.01 0.00 0.00 0.01 0.01 0.01 0.01 0.01 0.01 0.01 0.01 0.01 0.01 0.01 0.01 0.01 0.01 0.01 0.01 0.02 0.02
0.01 0.01 0.01 0.00 0.00 0.00 0.00 0.00 0.00 0.01 0.01 0.00 0.01 0.01 0.01 0.01 0.01 0.01 0.01 0.01 0.01 0.01 0.01 0.01 0.01 0.01 0.01 0.01 0.01 0.01 0.01 0.01 0.01 0.01 0.01 0.01 0.02 0.02 0.02 0.01 0.01 0.01 0.02 0.02
0.01 0.01 0.01 0.01 0.01 0.01 0.01 0.00 0.00 0.00 0.00 0.00 0.01 0.01 0.01 0.01 0.01 0.01 0.01 0.01 0.01 0.01 0.01 0.00 0.01 0.01 0.02 0.02 0.01 0.01 0.01 0.01 0.01 0.01 0.01 0.01 0.02 0.02 0.02 0.02 0.02 0.02 0.02 0.02
0.01 0.01 0.01 0.01 0.01 0.01 0.01 0.01 0.01 0.01 0.01 0.01 0.01 0.01 0.01 0.01 0.01 0.01 0.01 0.01 0.01 0.01 0.01 0.01 0.01 0.01 0.02 0.02 0.02 0.01 0.01 0.01 0.01 0.01 0.01 0.02 0.02 0.02 0.02 0.02 0.03 0.03 0.03 0.03
0.01 0.01 0.01 0.01 0.01 0.01 0.01 0.01 0.01 0.01 0.01 0.01 0.01 0.01 0.01 0.01 0.01 0.01 0.01 0.01 0.01 0.01 0.01 0.01 0.01 0.01 0.01 0.01 0.02 0.02 0.01 0.01 0.01 0.01 0.01 0.01 0.01 0.02 0.02 0.02 0.03 0.03 0.03 0.03
0.00 0.01 0.01 0.01 0.01 0.01 0.01 0.01 0.01 0.01 0.01 0.01 0.01 0.01 0.01 0.01 0.01 0.01 0.01 0.01 0.01 0.01 0.01 0.01 0.01 0.01 0.01 0.01 0.01 0.02 0.02 0.01 0.01 0.01 0.01 0.01 0.01 0.01 0.01 0.02 0.02 0.02 0.02 0.03
0.00 0.00 0.01 0.01 0.01 0.01 0.01 0.01 0.01 0.01 0.01 0.01 0.01 0.01 0.01 0.01 0.01 0.01 0.01 0.01 0.01 0.01 0.01 0.01 0.01 0.01 0.01 0.01 0.01 0.01 0.01 0.01 0.01 0.01 0.01 0.01 0.01 0.01 0.01 0.01 0.01 0.02 0.02 0.02
MSLP
1020.07 1020.41 1020.72 1021.00 1021.27 1021.50 1021.67 1021.76 1021.74 1021.60 1021.32 1020.93 1020.43 1019.87 1019.29 1018.74 1018.25 1017.84 1017.53 1017.32 1017.20 1017.15 1017.16 1017.21 1017.28 1017.37 1017.48 1017.61 1017.76 1017.94 1018.13 1018.35 1018.58 1018.83 1019.07 1019.30 1019.52 1019.73 1019.93 1020.11 1020.28 1020.45 1020.63 1020.82
1020.30 1020.56 1020.75 1020.87 1020.95 1021.00 1021.02 1020.99 1020.92 1020.80 1020.60 1020.35 1020.02 1019.64 1019.23 1018.80 1018.38 1017.98 1017.63 1017.34 1017.11 1016.95 1016.86 1016.84 1016.87 1016.96 1017.10 1017.27 1017.49 1017.72 1017.98 1018.25 1018.52 1018.80 1019.08 1019.35 1019.62 1019.87 1020.10 1020.33 1020.54 1020.74 1020.94 1021.15
1020.59 1020.74 1020.80 1020.77 1020.70 1020.59 1020.48 1020.37 1020.27 1020.17 1020.06 1019.92 1019.75 1019.53 1019.25 1018.93 1018.57 1018.18 1017.80 1017.43 1017.11 1016.85 1016.67 1016.57 1016.55 1016.62 1016.76 1016.97 1017.21 1017.49 1017.79 1018.09 1018.41 1018.72 1019.04 1019.35 1019.66 1019.96 1020.25 1020.52 1020.78 1021.02 1021.26 1021.49
1020.88 1020.92 1020.84 1020.69 1020.49 1020.27 1020.07 1019.91 1019.80 1019.73 1019.70 1019.67 1019.62 1019.53 1019.37 1019.14 1018.83 1018.46 1018.04 1017.62 1017.22 1016.88 1016.61 1016.44 1016.37 1016.40 1016.53 1016.72 1016.97 1017.26 1017.57 1017.89 1018.23 1018.57 1018.91 1019.26 1019.62 1019.98 1020.32 1020.66 1020.98 1021.27 1021.55 1021.80
1021.11 1021.03 1020.84 1020.59 1020.29 1020.01 1019.76 1019.59 1019.48 1019.46 1019.49 1019.55 1019.61 1019.62 1019.56 1019.40 1019.14 1018.79 1018.37 1017.91 1017.47 1017.06 1016.72 1016.49 1016.36 1016.34 1016.41 1016.57 1016.79 1017.05 1017.34 1017.66 1017.99 1018.33 1018.70 1019.09 1019.49 1019.90 1020.31 1020.71 1021.09 1021.45 1021.77 1022.07
1021.21 1021.02 1020.75 1020.42 1020.08 1019.77 1019.52 1019.36 1019.29 1019.31 1019.41 1019.55 1019.68 1019.77 1019.78 1019.69 1019.48 1019.16 1018.75 1018.29 1017.81 1017.37 1016.98 1016.69 1016.49 1016.41 1016.41 1016.51 1016.66 1016.87 1017.11 1017.39 1017.69 1018.03 1018.40 1018.80 1019.24 1019.70 1020.17 1020.64 1021.09 1021.51 1021.89 1022.23
1021.13 1020.86 1020.53 1020.18 1019.84 1019.54 1019.32 1019.20 1019.18 1019.26 1019.42 1019.61 1019.81 1019.96 1020.02 1019.98 1019.82 1019.53 1019.15 1018.71 1018.23 1017.77 1017.35 1017.01 1016.75 1016.59 1016.51 1016.51 1016.58 1016.71 1016.87 1017.08 1017.34 1017.65 1018.00 1018.42 1018.88 1019.38 1019.90 1020.42 1020.93 1021.41 1021.85 1022.26
1020.86 1020.54 1020.20 1019.87 1019.57 1019.33 1019.17 1019.11 1019.16 1019.29 1019.49 1019.73 1019.97 1020.16 1020.26 1020.26 1020.14 1019.90 1019.56 1019.14 1018.68 1018.21 1017.78 1017.39 1017.07 1016.83 1016.66 1016.56 1016.53 1016.55 1016.63 1016.76 1016.95 1017.21 1017.54 1017.95 1018.41 1018.93 1019.49 1020.06 1020.62 1021.16 1021.66 1022.12
1020.43 1020.11 1019.81 1019.53 1019.30 1019.15 1019.08 1019.10 1019.21 1019.40 1019.64 1019.91 1020.17 1020.38 1020.51 1020.54 1020.45 1020.25 1019.95 1019.56 1019.12 1018.67 1018.21 1017.79 1017.42 1017.09 1016.83 1016.63 1016.48 1016.40 1016.37 1016.42 1016.54 1016.74 1017.04 1017.42 1017.88 1018.40 1018.98 1019.57 1020.17 1020.76 1021.31 1021.83
1019.92 1019.65 1019.41 1019.22 1019.10 1019.05 1019.08 1019.19 1019.37 1019.61 1019.88 1020.16 1020.42 1020.63 1020.77 1020.81 1020.75 1020.58 1020.31 1019.96 1019.54 1019.09 1018.63 1018.17 1017.74 1017.34 1016.99 1016.68 1016.43 1016.24 1016.12 1016.09 1016.14 1016.28 1016.53 1016.88 1017.32 1017.84 1018.42 1019.02 1019.65 1020.26 1020.86 1021.43
1019.43 1019.23 1019.08 1019.00 1018.99 1019.06 1019.20 1019.39 1019.63 1019.91 1020.19 1020.48 1020.73 1020.93 1021.06 1021.10 1021.05 1020.90 1020.65 1020.32 1019.93 1019.48 1019.00 1018.51 1018.02 1017.55 1017.11 1016.72 1016.37 1016.10 1015.90 1015.79 1015.78 1015.87 1016.08 1016.40 1016.81 1017.31 1017.87 1018.48 1019.10 1019.74 1020.36 1020.97
1019.03 1018.91 1018.87 1018.91 1019.03 1019.21 1019.44 1019.71 1020.00 1020.29 1020.58 1020.85 1021.08 1021.25 1021.36 1021.40 1021.34 1021.20 1020.97 1020.66 1020.27 1019.82 1019.32 1018.80 1018.26 1017.72 1017.21 1016.74 1016.32 1015.98 1015.72 1015.55 1015.50 1015.56 1015.73 1016.02 1016.40 1016.87 1017.41 1018.00 1018.62 1019.26 1019.90 1020.54
1018.78 1018.75 1018.82 1018.97 1019.19 1019.47 1019.78 1020.10 1020.42 1020.72 1021.00 1021.24 1021.44 1021.58 1021.66 1021.68 1021.62 1021.48 1021.25 1020.94 1020.55 1020.10 1019.58 1019.03 1018.45 1017.86 1017.29 1016.76 1016.29 1015.90 1015.60 1015.40 1015.32 1015.36 1015.51 1015.77 1016.13 1016.58 1017.09 1017.65 1018.25 1018.87 1019.51 1020.16
1018.68 1018.74 1018.90 1019.15 1019.46 1019.81 1020.17 1020.52 1020.85 1021.14 1021.40 1021.60 1021.76 1021.87 1021.92 1021.92 1021.85 1021.70 1021.48 1021.17 1020.78 1020.31 1019.78 1019.20 1018.59 1017.97 1017.36 1016.79 1016.29 1015.87 1015.55 1015.34 1015.25 1015.28 1015.42 1015.67 1016.01 1016.43 1016.91 1017.44 1018.01 1018.61 1019.23 1019.88
1018.70 1018.85 1019.09 1019.41 1019.79 1020.18 1020.56 1020.92 1021.24 1021.51 1021.72 1021.89 1022.01 1022.08 1022.10 1022.07 1021.99 1021.84 1021.62 1021.31 1020.93 1020.46 1019.92 1019.32 1018.69 1018.05 1017.42 1016.83 1016.32 1015.89 1015.57 1015.36 1015.27 1015.30 1015.44 1015.68 1016.00 1016.39 1016.84 1017.34 1017.87 1018.44 1019.04 1019.67
1018.82 1019.04 1019.35 1019.72 1020.13 1020.54 1020.92 1021.27 1021.55 1021.78 1021.95 1022.06 1022.13 1022.17 1022.16 1022.12 1022.03 1021.88 1021.66 1021.36 1020.98 1020.51 1019.98 1019.38 1018.74 1018.10 1017.46 1016.88 1016.36 1015.94 1015.63 1015.43 1015.35 1015.39 1015.52 1015.75 1016.06 1016.43 1016.84 1017.30 1017.80 1018.33 1018.89 1019.48
1018.99 1019.27 1019.63 1020.04 1020.46 1020.87 1021.23 1021.53 1021.77 1021.94 1022.05 1022.12 1022.14 1022.14 1022.11 1022.05 1021.95 1021.80 1021.59 1021.31 1020.94 1020.49 1019.96 1019.37 1018.75 1018.11 1017.49 1016.91 1016.41 1016.00 1015.70 1015.51 1015.44 1015.47 1015.61 1015.82 1016.11 1016.45 1016.83 1017.25 1017.71 1018.19 1018.72 1019.28
1019.19 1019.52 1019.92 1020.35 1020.76 1021.15 1021.47 1021.72 1021.90 1022.01 1022.06 1022.07 1022.05 1022.01 1021.95 1021.87 1021.77 1021.62 1021.42 1021.15 1020.80 1020.38 1019.87 1019.31 1018.70 1018.08 1017.48 1016.92 1016.43 1016.04 1015.74 1015.56 1015.48 1015.51 1015.63 1015.82 1016.08 1016.39 1016.74 1017.12 1017.54 1017.99 1018.48 1019.01
1019.40 1019.79 1020.21 1020.64 1021.04 1021.39 1021.66 1021.86 1021.97 1022.02 1022.01 1021.96 1021.89 1021.81 1021.72 1021.63 1021.51 1021.37 1021.18 1020.92 1020.59 1020.19 1019.72 1019.18 1018.61 1018.01 1017.43 1016.89 1016.42 1016.03 1015.73 1015.54 1015.44 1015.44 1015.53 1015.69 1015.91 1016.18 1016.50 1016.84 1017.23 1017.65 1018.12 1018.63
1019.64 1020.06 1020.50 1020.92 1021.30 1021.60 1021.83 1021.96 1022.01 1022.00 1021.93 1021.83 1021.71 1021.59 1021.47 1021.35 1021.23 1021.07 1020.88 1020.64 1020.33 1019.95 1019.50 1019.00 1018.45 1017.89 1017.33 1016.81 1016.34 1015.95 1015.64 1015.42 1015.30 1015.26 1015.30 1015.41 1015.59 1015.82 1016.09 1016.41 1016.77 1017.18 1017.63 1018.14
1019.89 1020.33 1020.77 1021.18 1021.52 1021.79 1021.96 1022.04 1022.04 1021.97 1021.85 1021.71 1021.54 1021.39 1021.23 1021.08 1020.93 1020.76 1020.57 1020.32 1020.02 1019.66 1019.23 1018.76 1018.24 1017.71 1017.17 1016.66 1016.19 1015.79 1015.45 1015.20 1015.03 1014.94 1014.93 1014.99 1015.11 1015.29 1015.53 1015.82 1016.16 1016.57 1017.03 1017.54
1020.16 1020.60 1021.03 1021.40 1021.71 1021.94 1022.07 1022.11 1022.06 1021.95 1021.79 1021.60 1021.40 1021.20 1021.01 1020.83 1020.64 1020.45 1020.23 1019.97 1019.67 1019.31 1018.90 1018.45 1017.95 1017.44 1016.92 1016.42 1015.95 1015.53 1015.17 1014.88 1014.65 1014.51 1014.43 1014.43 1014.49 1014.63 1014.83 1015.10 1015.44 1015.85 1016.33 1016.87
1020.41 1020.83 1021.23 1021.57 1021.84 1022.03 1022.12 1022.13 1022.06 1021.92 1021.73 1021.51 1021.27 1021.04 1020.80 1020.57 1020.35 1020.11 1019.85 1019.57 1019.25 1018.89 1018.48 1018.04 1017.56 1017.06 1016.56 1016.07 1015.60 1015.17 1014.78 1014.44 1014.17 1013.96 1013.83 1013.76 1013.78 1013.87 1014.04 1014.30 1014.64 1015.07 1015.57 1016.15
1020.61 1021.00 1021.35 1021.65 1021.89 1022.04 1022.11 1022.09 1022.00 1021.84 1021.64 1021.40 1021.13 1020.86 1020.58 1020.30 1020.01 1019.72 1019.41 1019.09 1018.74 1018.35 1017.94 1017.50 1017.03 1016.55 1016.07 1015.58 1015.12 1014.67 1014.27 1013.90 1013.58 1013.33 1013.14 1013.02 1012.99 1013.05 1013.19 1013.44 1013.79 1014.23 1014.77 1015.40
1020.74 1021.07 1021.37 1021.63 1021.82 1021.95 1022.00 1021.97 1021.87 1021.71 1021.49 1021.23 1020.94 1020.62 1020.29 1019.95 1019.60 1019.25 1018.88 1018.50 1018.10 1017.68 1017.25 1016.80 1016.34 1015.87 1015.40 1014.94 1014.48 1014.04 1013.62 1013.24 1012.90 1012.60 1012.38 1012.22 1012.15 1012.18 1012.31 1012.55 1012.91 1013.37 1013.94 1014.61
1020.75 1021.03 1021.27 1021.49 1021.65 1021.75 1021.78 1021.75 1021.65 1021.48 1021.26 1020.98 1020.66 1020.31 1019.92 1019.52 1019.10 1018.66 1018.22 1017.77 1017.31 1016.85 1016.39 1015.93 1015.47 1015.01 1014.55 1014.11 1013.67 1013.24 1012.83 1012.45 1012.10 1011.79 1011.54 1011.36 1011.27 1011.28 1011.40 1011.64 1012.00 1012.48 1013.08 1013.78
1020.64 1020.86 1021.06 1021.23 1021.36 1021.44 1021.47 1021.43 1021.33 1021.16 1020.93 1020.64 1020.29 1019.89 1019.45 1018.97 1018.47 1017.96 1017.43 1016.90 1016.38 1015.86 1015.36 1014.88 1014.41 1013.95 1013.51 1013.09 1012.67 1012.27 1011.88 1011.51 1011.17 1010.87 1010.62 1010.43 1010.34 1010.34 1010.46 1010.70 1011.06 1011.55 1012.17 1012.89
Thickness
5694 5703 5704 5704 5705 5705 5697 5689 5680 5687 5691 5701 5707 5710 5711 5711 5709 5707 5705 5703 5701 5698 5696 5694 5693 5692 5692 5690 5690 5689 5687 5685 5684 5684 5683 5682 5681 5680 5680 5679 5679 5678 5677 5676
5690 5700 5701 5699 5703 5703 5701 5699 5693 5693 5695 5710 5712 5710 5709 5707 5706 5703 5702 5701 5700 5697 5695 5692 5691 5690 5689 5688 5687 5686 5684 5683 5683 5681 5679 5678 5677 5677 5676 5675 5675 5674 5673 5672
5671 5686 5689 5683 5699 5702 5701 5704 5700 5690 5699 5708 5706 5706 5705 5705 5704 5702 5701 5700 5697 5695 5694 5692 5690 5690 5687 5687 5685 5684 5682 5681 5680 5679 5677 5675 5675 5673 5672 5671 5670 5670 5669 5668
5663 5671 5663 5689 5710 5711 5705 5706 5708 5706 5706 5707 5707 5707 5708 5707 5704 5701 5700 5698 5696 5694 5692 5691 5690 5688 5687 5685 5683 5681 5679 5678 5677 5676 5674 5672 5671 5669 5668 5667 5666 5665 5665 5664
5652 5655 5667 5691 5706 5708 5700 5696 5705 5703 5703 5704 5704 5701 5698 5703 5703 5701 5700 5698 5695 5693 5692 5690 5687 5686 5684 5681 5679 5677 5675 5675 5674 5673 5670 5668 5666 5665 5664 5663 5662 5661 5661 5660
5649 5652 5656 5685 5707 5714 5702 5685 5702 5703 5699 5697 5694 5680 5685 5697 5697 5697 5697 5696 5694 5691 5689 5687 5686 5684 5680 5677 5675 5674 5674 5673 5672 5670 5668 5666 5664 5663 5661 5660 5658 5657 5656 5656
5647 5648 5663 5692 5705 5704 5676 5680 5700 5700 5697 5693 5687 5686 5690 5693 5692 5692 5692 5691 5690 5688 5685 5684 5683 5681 5677 5675 5673 5673 5673 5671 5669 5667 5665 5663 5661 5659 5657 5655 5653 5652 5650 5650
5644 5644 5659 5695 5695 5686 5686 5696 5698 5696 5695 5692 5689 5689 5688 5688 5686 5685 5684 5684 5684 5682 5681 5680 5679 5676 5673 5671 5672 5671 5669 5667 5665 5663 5662 5660 5657 5655 5653 5650 5647 5645 5644 5643
5657 5664 5682 5690 5692 5695 5695 5692 5692 5691 5691 5689 5686 5684 5683 5681 5680 5679 5679 5678 5677 5676 5675 5675 5674 5673 5670 5669 5668 5666 5663 5661 5659 5658 5657 5655 5652 5649 5647 5644 5642 5639 5638 5636
5660 5670 5680 5685 5689 5690 5690 5689 5689 5688 5687 5685 5681 5679 5678 5675 5673 5673 5672 5672 5671 5669 5668 5669 5669 5669 5668 5667 5664 5661 5658 5656 5654 5652 5650 5649 5647 5645 5642 5639 5636 5634 5632 5631
5654 5665 5671 5676 5679 5681 5683 5684 5683 5682 5681 5679 5677 5674 5672 5669 5668 5667 5667 5666 5665 5664 5663 5663 5663 5663 5663 5661 5659 5655 5652 5650 5648 5646 5644 5642 5641 5639 5637 5636 5634 5631 5629 5627
5647 5658 5657 5664 5672 5674 5674 5674 5675 5674 5672 5672 5671 5669 5667 5664 5663 5662 5661 5660 5659 5659 5658 5658 5658 5657 5657 5656 5653 5650 5646 5644 5642 5639 5637 5635 5633 5631 5630 5630 5629 5627 5626 5623
5655 5659 5659 5664 5666 5668 5667 5668 5669 5668 5666 5664 5664 5663 5661 5659 5658 5656 5655 5654 5653 5653 5653 5653 5652 5651 5651 5650 5648 5645 5641 5638 5635 5633 5631 5628 5626 5624 5622 5621 5621 5619 5618 5617
5652 5652 5651 5655 5657 5660 5661 5662 5662 5661 5660 5659 5657 5656 5654 5652 5651 5649 5649 5649 5649 5648 5647 5647 5646 5645 5645 5644 5641 5638 5635 5632 5629 5626 5624 5622 5620 5618 5616 5613 5611 5610 5610 5609
5645 5646 5645 5648 5650 5652 5653 5653 5652 5650 5650 5650 5650 5649 5647 5645 5644 5644 5643 5643 5642 5640 5640 5639 5638 5638 5638 5637 5634 5631 5628 5625 5622 5619 5617 5614 5612 5610 5608 5606 5603 5601 5600 5600
5636 5637 5638 5639 5640 5642 5643 5644 5642 5641 5641 5642 5641 5641 5641 5640 5639 5638 5637 5636 5634 5632 5632 5631 5630 5631 5630 5628 5625 5623 5620 5618 5615 5611 5609 5606 5604 5601 5598 5596 5594 5592 5591 5591
5623 5624 5627 5628 5631 5633 5634 5636 5635 5635 5634 5635 5635 5635 5634 5632 5631 5630 5630 5629 5628 5626 5625 5624 5623 5622 5621 5619 5617 5613 5611 5608 5607 5603 5601 5599 5596 5593 5591 5588 5586 5584 5584 5584
5620 5621 5622 5623 5623 5624 5626 5627 5628 5628 5628 5628 5628 5627 5625 5624 5623 5622 5622 5620 5619 5617 5617 5616 5615 5614 5612 5610 5608 5605 5602 5599 5597 5595 5592 5590 5587 5585 5583 5581 5579 5577 5576 5575
5612 5613 5614 5616 5617 5617 5618 5619 5620 5621 5621 5621 5619 5618 5617 5617 5616 5615 5613 5611 5609 5608 5608 5608 5608 5605 5603 5602 5600 5596 5594 5591 5589 5586 5584 5583 5580 5577 5575 5573 5571 5570 5568 5566
5605 5607 5607 5608 5610 5609 5609 5610 5611 5611 5612 5612 5610 5609 5607 5607 5606 5605 5603 5601 5601 5602 5601 5600 5598 5596 5594 5593 5591 5587 5585 5582 5580 5577 5575 5573 5571 5569 5567 5565 5564 5562 5560 5559
5595 5597 5599 5600 5600 5601 5601 5601 5601 5601 5602 5602 5600 5599 5599 5598 5597 5595 5593 5591 5592 5592 5591 5591 5588 5586 5585 5583 5581 5578 5575 5573 5571 5569 5567 5565 5563 5561 5560 5558 5556 5554 5553 5551
5585 5587 5589 5590 5591 5590 5591 5591 5592 5592 5591 5591 5591 5590 5588 5587 5586 5585 5584 5583 5584 5582 5581 5579 5578 5577 5575 5574 5570 5568 5566 5564 5562 5560 5559 5557 5556 5554 5552 5551 5549 5548 5545 5543
5575 5577 5579 5580 5581 5580 5580 5580 5581 5581 5580 5580 5579 5579 5578 5577 5575 5574 5573 5573 5573 5573 5571 5569 5568 5567 5566 5563 5560 5559 5557 5555 5553 5552 5550 5550 5549 5548 5546 5543 5542 5540 5538 5535
5564 5567 5568 5569 5570 5569 5569 5569 5570 5570 5569 5569 5568 5568 5566 5564 5563 5563 5563 5564 5563 5562 5560 5559 5558 5557 5555 5552 5550 5548 5547 5545 5544 5543 5542 5541 5540 5538 5537 5535 5533 5531 5529 5527
5554 5556 5557 5557 5557 5557 5558 5558 5558 5558 5557 5556 5556 5556 5555 5554 5552 5552 5551 5551 5552 5551 5549 5548 5548 5546 5543 5541 5539 5538 5537 5535 5534 5533 5532 5531 5530 5528 5527 5526 5524 5522 5520 5518
5542 5543 5544 5545 5546 5546 5546 5546 5545 5545 5545 5544 5543 5543 5542 5541 5541 5540 5539 5539 5538 5538 5537 5536 5535 5533 5532 5530 5529 5528 5527 5526 5524 5523 5522 5521 5519 5518 5516 5515 5513 5511 5510 5508
5530 5531 5532 5532 5533 5534 5534 5534 5533 5533 5533 5532 5530 5530 5529 5528 5528 5527 5526 5525 5525 5525 5524 5523 5522 5521 5520 5519 5517 5516 5515 5514 5514 5512 5511 5510 5509 5508 5506 5504 5502 5500 5498 5497